Deer Park, WA
on Monday, January 7, 2013

Monday
Previous Day Next Day
Daily Summary
 ActualAverageRecord
Temperature
Mean Temperature °F 26°F  
Max Temperature 36°F 32°F 44°F (2002)
Min Temperature 27°F 20°F 8°F (2004)
Degree Days
Heating Degree Days 33 39  
Month to date heating degree days 306 276  
Since 1 July heating degree days 3099 3503  
Cooling Degree Days 0 0  
Month to date cooling degree days 0 0  
Year to date cooling degree days 0 0  
Moisture
Dew Point 30°F   
Average Humidity 91    
Maximum Humidity 100    
Minimum Humidity 82    
Precipitation
Precipitation 0.66 in 0.10 in 0.84 in (2002)
Month to date precipitation 0.75 0.73  
Year to date precipitation 0.75 0.73  
Wind
Wind Speed 6 mph   
Max Wind Speed 22 mph   
Max Gust Speed 26 mph   
Visibility 3 miles   
Events Fog , Snow   

Key: T is trace of precipitation, MM is missing value
Source: NWS Daily Summary
Time(PST)TemperatureDew PointHumidity Pressure Visibility Wind DirectionWind SpeedGust SpeedPrecipitationEvents Conditions
12:01 AM 26.6°F 26.6°F 100% 30.04 in 0.8 miles Calm Calm - 0.01 in Snow Light Snow
12:25 AM 28.4°F 26.6°F 93% 30.02 in 0.8 miles Calm Calm - 0.03 in Snow Light Snow
12:53 AM 27.0°F 26.1°F 96% 30.10 in 0.8 miles NW 3.5 mph - 0.06 in Snow Light Snow
1:36 AM 28.4°F 26.6°F 93% 30.02 in 1.0 miles Calm Calm - 0.04 in Snow Light Snow
1:53 AM 28.0°F 27.0°F 96% 30.09 in 0.8 miles Calm Calm - 0.05 in Snow Light Snow
2:53 AM 28.0°F 27.0°F 96% 30.08 in 0.8 miles Calm Calm - 0.06 in Snow Light Snow
3:02 AM 28.4°F 26.6°F 93% 30.01 in 0.8 miles Calm Calm - 0.01 in Snow Light Snow
3:53 AM 28.0°F 27.0°F 96% 30.06 in 0.8 miles NE 3.5 mph - 0.06 in Snow Light Snow
4:26 AM 28.4°F 28.4°F 100% 29.97 in 1.0 miles Calm Calm - 0.04 in Snow Light Snow
4:53 AM 28.9°F 27.0°F 92% 30.04 in 1.0 miles Calm Calm - 0.05 in Snow Light Snow
5:53 AM 28.9°F 28.0°F 96% 30.00 in 1.2 miles Calm Calm - 0.04 in Snow Light Snow
6:06 AM 28.4°F 28.4°F 100% 29.93 in 1.2 miles Calm Calm - 0.01 in Snow Light Snow
6:44 AM 28.4°F 28.4°F 100% 29.92 in 1.0 miles Calm Calm - 0.04 in Snow Light Snow
6:51 AM 28.4°F 28.4°F 100% 29.92 in 0.8 miles Calm Calm - 0.04 in Snow Light Snow
6:53 AM 28.9°F 28.0°F 96% 29.99 in 0.8 miles Calm Calm - 0.04 in Snow Light Snow
7:27 AM 28.4°F 28.4°F 100% 29.91 in 1.0 miles NE 3.5 mph - 0.04 in Snow Light Snow
7:40 AM 28.4°F 28.4°F 100% 29.91 in 0.8 miles Calm Calm - 0.05 in Snow Light Snow
7:53 AM 30.0°F 28.9°F 96% 29.98 in 0.8 miles Calm Calm - 0.06 in Snow Light Snow
8:53 AM 30.0°F 30.0°F 100% 29.97 in 0.5 miles SSE 3.5 mph - 0.07 in Fog , Snow Snow
9:53 AM 30.9°F 30.9°F 100% 29.96 in 0.5 miles South 5.8 mph - 0.05 in Fog , Snow Snow
10:53 AM 30.9°F 30.9°F 100% 29.93 in 0.5 miles Calm Calm - 0.08 in Fog , Snow Snow
11:02 AM 32.0°F 30.2°F 93% 29.86 in 0.8 miles South 5.8 mph - 0.01 in Snow Light Snow
11:09 AM 32.0°F 30.2°F 93% 29.86 in 2.0 miles South 4.6 mph - 0.01 in Snow Light Snow
11:22 AM 32.0°F 30.2°F 93% 29.85 in 3.0 miles South 4.6 mph - 0.01 in Snow Light Snow
11:30 AM 32.0°F 30.2°F 93% 29.85 in 1.8 miles South 10.4 mph - 0.01 in Snow Light Snow
11:53 AM 32.0°F 32.0°F 100% 29.90 in 1.2 miles South 10.4 mph - 0.02 in Snow Light Snow
12:53 PM 33.1°F 32.0°F 96% 29.88 in 1.2 miles South 6.9 mph - 0.01 in   Overcast
1:32 PM 33.8°F 32.0°F 93% 29.82 in 3.0 miles South 6.9 mph - 0.01 in   Overcast
1:53 PM 33.1°F 32.0°F 96% 29.88 in 2.0 miles South 6.9 mph - 0.01 in   Overcast
2:02 PM 33.8°F 32.0°F 93% 29.82 in 1.5 miles South 9.2 mph - N/A   Overcast
2:40 PM 33.8°F 33.8°F 100% 29.82 in 0.8 miles South 6.9 mph - N/A   Mist
3:50 PM 33.8°F 33.8°F 100% 29.82 in 2.0 miles SSW 10.4 mph - N/A   Overcast
3:53 PM 34.0°F 34.0°F 100% 29.88 in 4.0 miles SSW 11.5 mph - N/A   Overcast
4:53 PM 34.0°F 33.1°F 96% 29.89 in 7.0 miles SSW 13.8 mph - N/A   Overcast
5:53 PM 34.0°F 34.0°F 100% 29.89 in 8.0 miles SSW 10.4 mph - N/A   Overcast
6:53 PM 35.1°F 34.0°F 96% 29.89 in 10.0 miles SW 17.3 mph - N/A   Overcast
7:31 PM 35.6°F 33.8°F 93% 29.84 in 10.0 miles SW 19.6 mph 24.2 mph N/A   Mostly Cloudy
7:53 PM 36.0°F 34.0°F 93% 29.90 in 10.0 miles SW 17.3 mph 25.3 mph N/A   Scattered Clouds
8:53 PM 34.0°F 32.0°F 92% 29.92 in 10.0 miles South 4.6 mph - N/A   Partly Cloudy
9:53 PM 34.0°F 32.0°F 92% 29.94 in 10.0 miles SSE 3.5 mph - N/A   Clear
10:53 PM 35.1°F 30.9°F 85% 29.97 in 10.0 miles SW 11.5 mph - N/A   Clear
11:53 PM 32.0°F 28.9°F 88% 30.01 in 10.0 miles SSE 6.9 mph - N/A   Clear
Moon Phase
Jan. 07 Jan. 11 Jan. 18 Jan. 26 Feb. 03
Sunrise:07:38 AM (PST) Moon Rise:03:02 AM (PST)1/7
Sunset:04:14 PM (PST) Moon Set:12:32 PM (PST)1/7

Copyright © 2014 The Weather Underground, Inc.